• In Hungary
  • List of Countries
  • For 7 days
  • Water Temperature
  • Satellite Maps
  • Weather Map
  • News
  • Weather Widgets
  • user-avatar
    Login

    Hourly Weather Obidza

    Today, 20 October, Saturday

    Time Temperature Precipitation Wind Pressure Humidity
    00:00 +8°C° 0 mm 1 mps 719 mmHg 92%
    01:00 +8°C° 0 mm 1 mps 719 mmHg 94%
    02:00 +8°C° 0 mm 1 mps 719 mmHg 94%
    03:00 +7°C° 0 mm 1 mps 719 mmHg 95%
    04:00 +7°C° 0 mm 1 mps 719 mmHg 95%
    05:00 +8°C° 0 mm 1 mps 719 mmHg 95%
    06:00 +8°C° 0 mm 1 mps 720 mmHg 94%
    07:00 +8°C° 0 mm 1 mps 720 mmHg 93%
    08:00 +10°C° 0 mm 1 mps 720 mmHg 87%
    09:00 +11°C° 0 mm 1 mps 720 mmHg 80%
    10:00 +12°C° 0 mm 1 mps 720 mmHg 74%
    11:00 +13°C° 0 mm 1 mps 720 mmHg 71%
    12:00 +14°C° 0 mm 2 mps 720 mmHg 69%
    13:00 +14°C° 0 mm 2 mps 720 mmHg 66%
    14:00 +13°C° 0 mm 2 mps 720 mmHg 70%
    15:00 +13°C° 0 mm 2 mps 720 mmHg 73%
    16:00 +12°C° 0 mm 2 mps 719 mmHg 77%
    17:00 +10°C° 0.1 mm 2 mps 719 mmHg 81%
    18:00 +10°C° 0.1 mm 2 mps 719 mmHg 85%
    19:00 +9°C° 0.1 mm 2 mps 719 mmHg 89%
    20:00 +9°C° 0.4 mm 2 mps 719 mmHg 89%
    21:00 +9°C° 0.4 mm 2 mps 719 mmHg 89%
    22:00 +8°C° 0.4 mm 3 mps 719 mmHg 90%
    23:00 +8°C° 0.7 mm 3 mps 719 mmHg 89%

    Tomorrow, 21 October, Sunday

    Time Temperature Precipitation Wind Pressure Humidity
    00:00 +7°C° 0.7 mm 3 mps 719 mmHg 89%
    01:00 +7°C° 0.7 mm 3 mps 719 mmHg 89%
    02:00 +5°C° 1.3 mm 3 mps 718 mmHg 89%
    03:00 +5°C° 1.3 mm 3 mps 718 mmHg 90%
    04:00 +5°C° 1.3 mm 3 mps 718 mmHg 90%
    05:00 +5°C° 0.9 mm 3 mps 718 mmHg 91%
    06:00 +5°C° 0.9 mm 3 mps 719 mmHg 91%
    07:00 +5°C° 0.9 mm 3 mps 719 mmHg 91%
    08:00 +5°C° 0.2 mm 3 mps 719 mmHg 88%
    09:00 +7°C° 0.2 mm 3 mps 720 mmHg 85%
    10:00 +6°C° 0.2 mm 4 mps 720 mmHg 82%
    11:00 +7°C° 0 mm 4 mps 720 mmHg 78%
    12:00 +8°C° 0 mm 4 mps 720 mmHg 74%
    13:00 +8°C° 0 mm 4 mps 720 mmHg 71%
    14:00 +9°C° 0 mm 3 mps 720 mmHg 72%
    15:00 +9°C° 0 mm 3 mps 720 mmHg 73%
    16:00 +8°C° 0 mm 3 mps 720 mmHg 74%
    17:00 +7°C° 0 mm 2 mps 721 mmHg 78%
    18:00 +6°C° 0 mm 2 mps 721 mmHg 82%
    19:00 +5°C° 0 mm 2 mps 721 mmHg 85%
    20:00 +6°C° 0 mm 1 mps 721 mmHg 86%
    21:00 +5°C° 0 mm 1 mps 721 mmHg 87%
    22:00 +5°C° 0 mm 1 mps 721 mmHg 89%
    23:00 +5°C° 0 mm 1 mps 721 mmHg 89%

    Day after tomorrow, 22 October, Monday

    Time Temperature Precipitation Wind Pressure Humidity
    00:00 +4°C° 0 mm 1 mps 721 mmHg 89%
    01:00 +4°C° 0 mm 1 mps 721 mmHg 89%
    02:00 +4°C° 0 mm 1 mps 720 mmHg 89%
    03:00 +4°C° 0 mm 1 mps 720 mmHg 89%
    04:00 +4°C° 0 mm 1 mps 720 mmHg 89%
    05:00 +4°C° 0 mm 1 mps 720 mmHg 88%
    06:00 +4°C° 0 mm 1 mps 720 mmHg 87%
    07:00 +3°C° 0 mm 0 mps 720 mmHg 86%
    08:00 +6°C° 0 mm 1 mps 720 mmHg 78%
    09:00 +8°C° 0 mm 1 mps 720 mmHg 70%
    10:00 +10°C° 0 mm 1 mps 721 mmHg 62%
    11:00 +11°C° 0 mm 1 mps 720 mmHg 59%
    12:00 +11°C° 0 mm 1 mps 720 mmHg 56%
    13:00 +12°C° 0 mm 1 mps 720 mmHg 52%
    14:00 +11°C° 0 mm 1 mps 719 mmHg 57%
    15:00 +10°C° 0 mm 1 mps 719 mmHg 61%
    16:00 +9°C° 0 mm 1 mps 718 mmHg 65%
    17:00 +8°C° 0 mm 1 mps 718 mmHg 69%
    18:00 +7°C° 0 mm 1 mps 718 mmHg 73%
    19:00 +6°C° 0 mm 1 mps 718 mmHg 77%
    20:00 +5°C° 0 mm 1 mps 718 mmHg 78%
    21:00 +5°C° 0 mm 1 mps 718 mmHg 79%
    22:00 +4°C° 0 mm 1 mps 718 mmHg 80%
    23:00 +4°C° 0 mm 1 mps 718 mmHg 80%

    23 October, Tuesday

    Time Temperature Precipitation Wind Pressure Humidity
    00:00 +4°C° 0 mm 1 mps 718 mmHg 81%
    01:00 +4°C° 0 mm 1 mps 718 mmHg 81%
    02:00 +3°C° 0 mm 2 mps 718 mmHg 82%
    03:00 +3°C° 0 mm 2 mps 718 mmHg 82%
    04:00 +3°C° 0 mm 2 mps 717 mmHg 83%
    05:00 +3°C° 0.3 mm 2 mps 718 mmHg 84%
    06:00 +4°C° 0.3 mm 2 mps 718 mmHg 86%
    07:00 +3°C° 0.3 mm 3 mps 718 mmHg 87%
    08:00 +4°C° 0 mm 3 mps 718 mmHg 83%
    09:00 +5°C° 0 mm 3 mps 718 mmHg 79%
    10:00 +5°C° 0 mm 3 mps 718 mmHg 74%
    11:00 +7°C° 0 mm 3 mps 718 mmHg 70%
    12:00 +7°C° 0 mm 3 mps 718 mmHg 65%
    13:00 +8°C° 0 mm 3 mps 717 mmHg 60%
    14:00 +7°C° 0 mm 3 mps 716 mmHg 63%
    15:00 +7°C° 0 mm 2 mps 716 mmHg 65%
    16:00 +6°C° 0 mm 2 mps 715 mmHg 67%
    17:00 +4°C° 0 mm 3 mps 714 mmHg 69%
    18:00 +3°C° 0 mm 3 mps 714 mmHg 71%
    19:00 +3°C° 0 mm 3 mps 713 mmHg 74%
    20:00 +3°C° 0.2 mm 3 mps 712 mmHg 74%
    21:00 +3°C° 0.2 mm 4 mps 711 mmHg 75%
    22:00 +4°C° 0.2 mm 4 mps 710 mmHg 75%
    23:00 +3°C° 0.5 mm 5 mps 709 mmHg 77%

    24 October, Wednesday

    Time Temperature Precipitation Wind Pressure Humidity
    00:00 +3°C° 0.5 mm 5 mps 708 mmHg 79%
    01:00 +3°C° 0.5 mm 5 mps 707 mmHg 81%
    02:00 +5°C° 0.5 mm 5 mps 706 mmHg 83%
    03:00 +5°C° 0.5 mm 5 mps 705 mmHg 84%
    04:00 +5°C° 0.5 mm 6 mps 704 mmHg 86%
    05:00 +5°C° 1.1 mm 6 mps 704 mmHg 85%
    06:00 +5°C° 1.1 mm 6 mps 704 mmHg 84%
    07:00 +5°C° 1.1 mm 6 mps 704 mmHg 83%
    08:00 +4°C° 0.5 mm 7 mps 704 mmHg 79%
    09:00 +4°C° 0.5 mm 8 mps 705 mmHg 75%
    10:00 +2°C° 0.5 mm 9 mps 705 mmHg 70%
    11:00 +2°C° 0.1 mm 8 mps 706 mmHg 66%
    12:00 +2°C° 0.1 mm 8 mps 707 mmHg 61%
    13:00 +1°C° 0.1 mm 8 mps 707 mmHg 56%
    14:00 +2°C° 0.1 mm 7 mps 708 mmHg 56%
    15:00 +2°C° 0.1 mm 7 mps 708 mmHg 57%
    16:00 +1°C° 0.1 mm 6 mps 708 mmHg 57%
    17:00 +1°C° 0 mm 5 mps 709 mmHg 59%
    18:00 +1°C° 0 mm 5 mps 709 mmHg 61%
    19:00 0°C° 0 mm 4 mps 709 mmHg 63%
    20:00 0°C° 0 mm 4 mps 710 mmHg 65%
    21:00 -1°C° 0 mm 4 mps 710 mmHg 67%
    22:00 0°C° 0 mm 3 mps 710 mmHg 69%
    23:00 -1°C° 0 mm 3 mps 710 mmHg 70%

    25 October, Thursday

    Time Temperature Precipitation Wind Pressure Humidity
    00:00 -1°C° 0 mm 3 mps 710 mmHg 71%
    01:00 -1°C° 0 mm 3 mps 710 mmHg 72%
    02:00 -1°C° 0 mm 3 mps 710 mmHg 74%
    03:00 -1°C° 0 mm 3 mps 710 mmHg 77%
    04:00 -1°C° 0 mm 2 mps 710 mmHg 79%
    05:00 -1°C° 0 mm 2 mps 711 mmHg 80%
    06:00 0°C° 0 mm 3 mps 711 mmHg 80%
    07:00 0°C° 0 mm 3 mps 711 mmHg 81%
    08:00 +2°C° 0 mm 3 mps 711 mmHg 76%
    09:00 +3°C° 0 mm 3 mps 712 mmHg 70%
    10:00 +5°C° 0 mm 4 mps 712 mmHg 64%
    11:00 +5°C° 0.2 mm 3 mps 711 mmHg 70%
    12:00 +5°C° 0.2 mm 3 mps 711 mmHg 75%
    13:00 +5°C° 0.2 mm 3 mps 711 mmHg 80%
    14:00 +5°C° 0.3 mm 3 mps 710 mmHg 83%
    15:00 +7°C° 0.3 mm 3 mps 710 mmHg 85%
    16:00 +7°C° 0.3 mm 3 mps 710 mmHg 88%
    17:00 +6°C° 0.1 mm 4 mps 710 mmHg 88%
    18:00 +6°C° 0.1 mm 4 mps 710 mmHg 89%
    19:00 +6°C° 0.1 mm 4 mps 711 mmHg 89%
    20:00 +6°C° 0.1 mm 4 mps 711 mmHg 90%
    21:00 +5°C° 0.1 mm 4 mps 711 mmHg 90%
    22:00 +5°C° 0.1 mm 3 mps 711 mmHg 91%
    23:00 +5°C° 0 mm 3 mps 711 mmHg 91%
    Show more